TimeEDT,TemperatureF,Dew PointF,Humidity,Sea Level PressureIn,VisibilityMPH,Wind Direction,Wind SpeedMPH,Gust SpeedMPH,PrecipitationIn,Events,Conditions,WindDirDegrees,DateUTC
12:51 AM,30.0,16.0,56,29.98,10.0,WSW,9.2,-,N/A,,Partly Cloudy,250,2013-03-20 04:51:00
1:51 AM,28.9,16.0,58,29.98,10.0,West,9.2,-,N/A,,Partly Cloudy,260,2013-03-20 05:51:00
2:51 AM,28.9,15.1,56,29.99,10.0,West,9.2,-,N/A,,Partly Cloudy,270,2013-03-20 06:51:00
3:51 AM,28.0,15.1,58,29.99,10.0,WSW,5.8,-,N/A,,Partly Cloudy,250,2013-03-20 07:51:00
4:51 AM,28.0,15.1,58,29.98,10.0,West,5.8,-,N/A,,Partly Cloudy,270,2013-03-20 08:51:00
5:51 AM,28.0,15.1,58,29.99,10.0,WSW,4.6,-,N/A,,Partly Cloudy,240,2013-03-20 09:51:00
6:51 AM,27.0,15.1,61,29.99,10.0,WSW,4.6,-,N/A,,Partly Cloudy,240,2013-03-20 10:51:00
7:51 AM,27.0,15.1,61,30.00,10.0,West,9.2,-,N/A,,Scattered Clouds,260,2013-03-20 11:51:00
8:51 AM,28.9,15.1,56,29.98,10.0,West,9.2,16.1,N/A,,Scattered Clouds,260,2013-03-20 12:51:00
9:51 AM,30.9,12.9,47,29.97,10.0,WSW,12.7,20.7,N/A,,Scattered Clouds,250,2013-03-20 13:51:00
10:51 AM,33.1,10.9,40,29.96,10.0,West,12.7,23.0,N/A,,Overcast,260,2013-03-20 14:51:00
11:51 AM,35.1,14.0,42,29.93,10.0,SW,17.3,24.2,N/A,,Overcast,230,2013-03-20 15:51:00
12:51 PM,36.0,15.1,43,29.91,10.0,WSW,16.1,26.5,N/A,,Overcast,240,2013-03-20 16:51:00
1:51 PM,35.1,17.1,48,29.90,9.0,West,19.6,27.6,0.00,Snow,Light Snow,270,2013-03-20 17:51:00
2:51 PM,37.0,19.0,48,29.87,7.0,WNW,18.4,26.5,0.00,Snow,Light Snow,290,2013-03-20 18:51:00
3:16 PM,35.6,17.6,48,29.82,1.5,West,21.9,31.1,0.00,Snow,Light Snow,280,2013-03-20 19:16:00
3:28 PM,35.6,19.4,52,29.81,7.0,West,18.4,25.3,0.00,Snow,Light Snow,270,2013-03-20 19:28:00
3:51 PM,37.9,17.1,43,29.86,9.0,West,12.7,31.1,0.00,,Mostly Cloudy,260,2013-03-20 19:51:00
4:46 PM,35.6,21.2,56,29.81,3.0,WNW,23.0,27.6,0.00,Snow,Light Snow,300,2013-03-20 20:46:00
4:51 PM,35.1,23.0,61,29.87,3.0,WNW,24.2,27.6,0.00,Snow,Light Snow,300,2013-03-20 20:51:00
5:00 PM,33.8,23.0,65,29.81,7.0,WNW,18.4,28.8,0.00,Snow,Light Snow,300,2013-03-20 21:00:00
5:51 PM,34.0,19.9,56,29.86,8.0,NW,16.1,27.6,0.00,,Mostly Cloudy,310,2013-03-20 21:51:00
6:51 PM,32.0,16.0,52,29.88,10.0,WNW,16.1,23.0,N/A,,Mostly Cloudy,300,2013-03-20 22:51:00
7:51 PM,30.9,16.0,54,29.89,10.0,NW,13.8,-,N/A,,Mostly Cloudy,320,2013-03-20 23:51:00
8:51 PM,28.0,16.0,61,29.92,10.0,NW,13.8,-,N/A,,Mostly Cloudy,320,2013-03-21 00:51:00
9:51 PM,27.0,16.0,63,29.93,10.0,WNW,10.4,-,N/A,,Partly Cloudy,300,2013-03-21 01:51:00
10:51 PM,26.1,17.1,69,29.93,10.0,NW,9.2,-,N/A,,Partly Cloudy,310,2013-03-21 02:51:00
11:51 PM,25.0,18.0,75,29.93,4.0,West,10.4,-,0.00,Snow,Light Snow,280,2013-03-21 03:51:00